Milan, Italy

9:15 AM CET on February 09, 2016 (GMT +0100)
Malpensa

Weather History for LIMC - January, 2013

Change the Weather History Date:

Tuesday, January 1, 2013

  Actual Average Record
Temperature  
Mean Temperature 34 °F -  
Max Temperature 44 °F 43 °F 48 °F (2012)
Min Temperature 23 °F 24 °F 12 °F (2002)
Degree Days  
Heating Degree Days 32    
Moisture  
Dew Point 29 °F    
Average Humidity 82    
Maximum Humidity 100    
Minimum Humidity 53    
Precipitation  
Precipitation 0.00 in 0.09 in - ()
Sea Level Pressure  
Sea Level Pressure 30.05 in    
Wind  
Wind Speed 1 mph ()    
Max Wind Speed 5 mph    
Max Gust Speed -    
Visibility 5.7 miles    
Events Rain    
Averages and records for this station are not official NWS values.
T = Trace of Precipitation, MM = Missing Value Source: Averaged Metar Reports

Daily Weather History Graph

Daily Weather History Graph

Search for Another Location

Airport or City:

Trip Planner

Search our weather history database for the weather conditions in past years. The results will help you decide how hot, cold, wet, or windy it might be!

Date:

Astronomy

Jan. 01, 2013 Rise Set
Actual Time 8:05 AM CET 4:51 PM CET
Civil Twilight 7:31 AM CET 5:26 PM CET
Nautical Twilight 6:54 AM CET 6:03 PM CET
Astronomical Twilight 6:17 AM CET 6:39 PM CET
Moon 9:20 PM CET (1/1) 9:57 AM CET (1/1)
Length of Visible Light 9h 54m
Length of Day
8h 46m
Waning Gibbous, 85% of the Moon is Illuminated
Jan 1
Waning Gibbous
Jan 5
Last Quarter
Jan 11
New
Jan 19
First Quarter
Jan 27
Full

Hourly Weather History & Observations

Time (CET) Temp. Windchill Dew Point Humidity Pressure Visibility Wind Dir Wind Speed Gust Speed Precip Events Conditions
12:20 AM 23.0 °F - 23.0 °F 100% 30.15 in - Variable 2.3 mph - N/A   Clear
12:50 AM 24.8 °F - 24.8 °F 100% 30.12 in - Calm Calm - N/A   Clear
1:20 AM 24.8 °F - 23.0 °F 93% 30.12 in - Variable 1.2 mph - N/A   Clear
1:50 AM 23.0 °F - 23.0 °F 100% 30.12 in - Calm Calm - N/A   Clear
2:20 AM 23.0 °F - 23.0 °F 100% 30.09 in - Variable 1.2 mph - N/A   Clear
2:50 AM 23.0 °F - 21.2 °F 93% 30.09 in - Calm Calm - N/A   Clear
6:50 AM 24.8 °F 19.1 °F 23.0 °F 93% 30.06 in - North 4.6 mph - N/A   Clear
7:20 AM 26.6 °F - 26.6 °F 100% 30.06 in - Variable 1.2 mph - N/A   Clear
7:50 AM 24.8 °F - 23.0 °F 93% 30.06 in 6.2 mi Variable 2.3 mph - N/A   Scattered Clouds
8:20 AM 24.8 °F - 24.8 °F 100% 30.06 in 6.2 mi Variable 2.3 mph - N/A   Scattered Clouds
8:50 AM 26.6 °F 22.6 °F 24.8 °F 93% 30.06 in 6.2 mi North 3.5 mph - N/A   Scattered Clouds
9:20 AM 30.2 °F - 28.4 °F 93% 30.06 in 6.2 mi Variable 2.3 mph - N/A   Scattered Clouds
9:50 AM 35.6 °F - 30.2 °F 81% 30.06 in 6.2 mi Calm Calm - N/A   Scattered Clouds
10:20 AM 39.2 °F - 30.2 °F 70% 30.06 in 6.2 mi Calm Calm - N/A   Scattered Clouds
10:50 AM 39.2 °F - 30.2 °F 70% 30.06 in 6.2 mi Variable 1.2 mph - N/A   Scattered Clouds
11:20 AM 41.0 °F - 30.2 °F 65% 30.06 in 6.2 mi Variable 1.2 mph - N/A   Scattered Clouds
11:50 AM 42.8 °F - 28.4 °F 57% 30.06 in 6.2 mi Calm Calm - N/A   Scattered Clouds
12:20 PM 44.6 °F - 28.4 °F 53% 30.04 in 6.2 mi Calm Calm - N/A   Scattered Clouds
12:50 PM 44.6 °F - 28.4 °F 53% 30.04 in 6.2 mi Variable 2.3 mph - N/A   Scattered Clouds
1:20 PM 44.6 °F - 28.4 °F 53% 30.04 in 6.2 mi Variable 2.3 mph - N/A   Mostly Cloudy
1:50 PM 44.6 °F - 28.4 °F 53% 30.01 in 6.2 mi Variable 2.3 mph - N/A   Mostly Cloudy
2:20 PM 44.6 °F - 30.2 °F 57% 30.01 in 6.2 mi SE 2.3 mph - N/A   Mostly Cloudy
2:50 PM 41.0 °F 39.0 °F 32.0 °F 70% 30.01 in 6.2 mi South 3.5 mph - N/A   Mostly Cloudy
3:20 PM 39.2 °F 37.0 °F 30.2 °F 70% 30.01 in 6.2 mi SE 3.5 mph - N/A   Mostly Cloudy
3:50 PM 39.2 °F - 30.2 °F 70% 30.04 in 5.0 mi Variable 2.3 mph - N/A   Mostly Cloudy
4:20 PM 39.2 °F - 30.2 °F 70% 30.04 in 5.0 mi Calm Calm - N/A   Mostly Cloudy
4:50 PM 39.2 °F - 30.2 °F 70% 30.01 in 3.7 mi Variable 2.3 mph - N/A   Mostly Cloudy
5:20 PM 37.4 °F - 32.0 °F 81% 30.01 in 3.1 mi Variable 2.3 mph - N/A   Mostly Cloudy
5:50 PM 35.6 °F - 32.0 °F 87% 30.04 in 3.1 mi Variable 1.2 mph - N/A   Mostly Cloudy
6:20 PM 35.6 °F - 33.8 °F 93% 30.04 in 3.1 mi WSW 2.3 mph - N/A   Mostly Cloudy
6:50 PM 37.4 °F - 32.0 °F 81% 30.04 in 5.0 mi Variable 1.2 mph - N/A   Mostly Cloudy
7:20 PM 37.4 °F - 32.0 °F 81% 30.04 in 6.2 mi Variable 1.2 mph - N/A   Mostly Cloudy
7:50 PM 39.2 °F - 32.0 °F 75% 30.04 in 6.2 mi Variable 2.3 mph - N/A   Mostly Cloudy
8:20 PM 37.4 °F - 32.0 °F 81% 30.04 in 6.2 mi NNW 1.2 mph - N/A   Mostly Cloudy
8:50 PM 35.6 °F - 33.8 °F 93% 30.04 in 6.2 mi North 2.3 mph - N/A   Mostly Cloudy
9:20 PM 37.4 °F - 33.8 °F 87% 30.04 in 6.2 mi Variable 2.3 mph - N/A Rain Light Rain
9:50 PM 35.6 °F - 33.8 °F 93% 30.04 in 6.2 mi Calm Calm - N/A Rain Light Rain
10:20 PM 35.6 °F - 35.6 °F 100% 30.04 in 6.2 mi Calm Calm - N/A Rain Light Rain
10:50 PM 35.6 °F - 35.6 °F 100% 30.04 in 6.2 mi Calm Calm - N/A Rain Rain
11:20 PM 37.4 °F - 35.6 °F 93% 30.06 in 6.2 mi WSW 2.3 mph - N/A Rain Rain
11:50 PM 35.6 °F - 35.6 °F 100% 30.06 in 6.2 mi Calm Calm - N/A Rain Rain